Home > Weather > Tunis > Past weeks

Flag for Tunisia Weather for the Past 2 Weeks in Tunis, Tunisia

Now
73 °F

Passing clouds.


Feels Like: 77 °F
Forecast: 48 / 77 °F
Wind: 20 mph from Northwest

Location: Tunis-Carthage

Current Time: May 4, 2016 at 4:52:42 PM

Latest Report: May 4, 2016 at 3:30 PM


Visibility: N/A

Pressure: 30.01 "Hg

Humidity: 36%

Dew Point: 45 °F

Location of TunisLocation

Historic Weather in Tunis — Graph

°F

Tunis Temperature Yesterday

Maximum temperature yesterday: 73 °F (at 1:30 PM)
Minimum temperature yesterday: 59 °F (at 12:00 AM)
Average temperature yesterday: 65 °F

High & Low Weather Summary for the Past Weeks

 TemperatureHumidityPressure
High81 °F (Apr 28, 2:00 PM)100% (Apr 22, 5:00 AM)30.21 "Hg (Apr 22, 5:00 AM)
Low52 °F (Apr 26, 4:00 AM)29% (Apr 26, 12:30 PM)29.74 "Hg (Apr 28, 3:30 PM)
Average65 °F64%29.97 "Hg
* Reported Apr 19 3:30 PM — May 4 3:30 PM, Tunis, Weather by CustomWeather, © 2016

Note: Actual official high and low records may vary slightly from our data, if they occured in-between our weather recording intervals... More about our weather records

Advertising

Tunis Weather History for the Previous 24 Hours

Scroll right to see more
 ConditionsComfort  
Time TempWeatherWind HumidityBarometerVisibility
3:30 PM
Wed, May 4
73 °FPassing clouds.20 mph36%30.01 "HgN/A
3:00 PM73 °FPassing clouds.21 mph36%30.01 "HgN/A
2:30 PM75 °FPassing clouds.16 mph34%30.01 "HgN/A
2:00 PM75 °FPassing clouds.17 mph36%30.04 "HgN/A
1:30 PM75 °FPassing clouds.15 mph34%30.04 "HgN/A
12:00 PM73 °FPassing clouds.17 mph36%30.07 "HgN/A
11:30 AM73 °FPassing clouds.15 mph36%30.07 "HgN/A
11:00 AM73 °FPassing clouds.16 mph36%30.07 "HgN/A
10:30 AM72 °FPassing clouds.16 mph38%30.07 "HgN/A
10:04 AM72 °FPassing clouds.18 mph38%30.07 "HgN/A
9:00 AM68 °FScattered clouds.18 mph38%30.07 "HgN/A
8:30 AM68 °FScattered clouds.20 mph38%30.07 "HgN/A
8:00 AM66 °FPassing clouds.14 mph37%30.07 "HgN/A
7:00 AM61 °FPassing clouds.8 mph45%30.07 "HgN/A
6:30 AM59 °FScattered clouds.8 mph48%30.04 "HgN/A
6:00 AM59 °FScattered clouds.9 mph45%30.04 "HgN/A
5:30 AM59 °FScattered clouds.9 mph48%30.04 "HgN/A
5:00 AM57 °FPassing clouds.8 mph51%30.07 "HgN/A
4:30 AM59 °FPassing clouds.12 mph51%30.07 "HgN/A
3:30 AM59 °FPassing clouds.9 mph51%30.07 "HgN/A
3:00 AM59 °FPassing clouds.12 mph55%30.07 "HgN/A
2:30 AM61 °FPassing clouds.15 mph52%30.07 "HgN/A
2:00 AM61 °FPassing clouds.18 mph52%30.07 "HgN/A
1:30 AM61 °FPassing clouds.16 mph52%30.07 "HgN/A
1:00 AM61 °FPassing clouds.17 mph52%30.09 "HgN/A
12:30 AM61 °FPassing clouds.15 mph52%30.09 "HgN/A
12:00 AM61 °FPassing clouds.16 mph55%30.09 "HgN/A
11:30 PM
Tue, May 3
61 °FPassing clouds.17 mph55%30.09 "HgN/A
11:00 PM61 °FPassing clouds.20 mph59%30.09 "HgN/A
10:30 PM63 °FPassing clouds.18 mph52%30.09 "HgN/A
10:00 PM63 °FPassing clouds.22 mph52%30.09 "HgN/A
9:30 PM63 °FPassing clouds.18 mph52%30.09 "HgN/A
8:58 PM63 °FPassing clouds.18 mph56%30.07 "HgN/A
8:30 PM63 °FPassing clouds.13 mph56%30.09 "HgN/A
8:00 PM63 °FPassing clouds.17 mph59%30.09 "HgN/A
7:30 PM64 °FPassing clouds.20 mph56%30.07 "HgN/A
7:00 PM64 °FPassing clouds.18 mph56%30.07 "HgN/A
6:30 PM66 °FPassing clouds.22 mph52%30.07 "HgN/A
6:00 PM66 °FPassing clouds.21 mph52%30.07 "HgN/A
5:00 PM70 °FPassing clouds.25 mph46%30.04 "HgN/A
4:30 PM70 °FPassing clouds.24 mph50%30.07 "HgN/A
4:00 PM70 °FPassing clouds.20 mph50%30.07 "HgN/A
Weather by CustomWeather, © 2016

See weather overviewHow to use our weather pages